EW9660 Weather Reports


time (UTC)temp
C
wind
direction
speed
KPH
gust
KPH
rain 1hr
cm
rain 24hr
cm
rain mn
cm
humidity
%
barometer
mb
20260906060008 21 355 0.0 3.2 0.00 0.00 0.00 91 1012.2
20260906054550 21 355 0.0 0.0 0.00 0.00 0.00 90 1012.3
20260906053010 21 355 0.0 0.0 0.00 0.00 0.00 91 1012.4
20260906051608 21 355 0.0 3.2 0.00 0.00 0.00 90 1012.6
20260906050024 21 355 0.0 3.2 0.00 0.00 0.00 90 1012.7
20260906044515 21 292 0.0 3.2 0.00 0.00 0.00 90 1012.8
20260906043112 21 292 0.0 3.2 0.00 0.00 0.00 91 1012.8
20260906041547 21 292 0.0 0.0 0.00 0.00 0.00 90 1012.8
20260906040035 21 292 0.0 0.0 0.00 0.00 0.00 90 1012.9
20260906034525 21 292 0.0 0.0 0.00 0.00 0.00 90 1013.0
20260906033016 21 292 0.0 0.0 0.00 0.00 0.00 89 1013.1
20260906031615 22 292 0.0 0.0 0.00 0.00 0.00 89 1013.1
20260906030028 22 292 0.0 0.0 0.00 0.00 0.00 89 1013.2
20260906024520 22 292 0.0 0.0 0.00 0.00 0.00 89 1013.0
20260906023006 22 292 0.0 0.0 0.00 0.00 0.00 89 1012.7
20260906021536 22 292 0.0 0.0 0.00 0.00 0.00 89 1012.7
20260906020024 22 292 0.0 0.0 0.00 0.00 0.00 88 1012.6
20260906014522 22 292 0.0 0.0 0.00 0.00 0.00 87 1012.5
20260906013006 23 292 0.0 0.0 0.00 0.00 0.00 87 1012.6
20260906011539 23 292 0.0 0.0 0.00 0.00 0.00 86 1012.3
20260906010107 23 292 0.0 0.0 0.00 0.00 0.00 86 1012.2
20260906004551 23 292 0.0 1.6 0.00 0.00 0.00 85 1012.2
20260906003042 24 292 0.0 3.2 0.00 0.00 0.00 84 1012.0
20260906001524 24 292 0.0 1.6 0.00 0.00 0.00 83 1012.0
20260906000015 25 292 0.0 1.6 0.00 0.00 0.00 82 1011.8
20260905234502 25 292 0.0 3.2 0.00 0.00 0.00 80 1011.7
20260905233103 26 292 0.0 0.0 0.00 0.00 0.00 78 1011.5
20260905231541 26 292 0.0 3.2 0.00 0.00 0.00 75 1011.3
20260905230028 27 339 0.0 1.6 0.00 0.00 0.00 71 1011.4
20260905224505 28 339 0.0 3.2 0.00 0.00 0.00 70 1011.6
20260905223035 29 339 0.0 3.2 0.00 0.00 0.00 66 1011.3
20260905221509 28 302 1.6 3.2 0.00 0.00 0.00 65 1011.4
20260905220045 28 304 0.0 3.2 0.00 0.00 0.00 67 1011.6
20260905214523 26 347 0.0 4.8 0.00 0.00 0.00 71 1011.8
20260905213009 26 5 0.0 4.8 0.00 0.00 0.00 71 1011.9
20260905211542 25 152 1.6 4.8 0.00 0.00 0.00 70 1012.2
20260905210011 25 332 1.6 8.0 0.00 0.00 0.00 72 1012.2
20260905204553 24 323 1.6 4.8 0.00 0.00 0.00 73 1012.2
20260905203036 24 355 0.0 3.2 0.00 0.00 0.00 74 1012.4
20260905201518 25 346 0.0 4.8 0.00 0.00 0.00 73 1012.7
20260905200128 25 27 1.6 8.0 0.00 0.00 0.00 70 1012.3
20260905194523 26 182 1.6 9.7 0.00 0.00 0.00 68 1013.3
20260905193004 26 355 6.4 12.9 0.00 0.00 0.00 70 1012.8
20260905191506 27 63 1.6 4.8 0.00 0.00 0.00 69 1011.8
20260905190025 28 86 1.6 8.0 0.00 0.00 0.00 65 1011.3
20260905184603 32 37 9.7 24.1 0.00 0.00 0.00 56 1011.8
20260905183019 33 49 0.0 4.8 0.00 0.00 0.00 55 1011.8
20260905181514 35 52 1.6 6.4 0.00 0.00 0.00 51 1012.1
20260905180010 35 162 3.2 8.0 0.00 0.00 0.00 49 1012.2
20260905174604 34 329 3.2 8.0 0.00 0.00 0.00 49 1012.8
20260905173035 35 169 1.6 6.4 0.00 0.00 0.00 53 1012.9
20260905171516 34 330 6.4 9.7 0.00 0.00 0.00 49 1013.2
20260905170053 34 304 1.6 6.4 0.00 0.00 0.00 54 1013.3
20260905164517 33 29 1.6 11.3 0.00 0.00 0.00 54 1013.6
20260905163111 33 9 3.2 8.0 0.00 0.00 0.00 60 1013.8
20260905161544 33 209 1.6 3.2 0.00 0.00 0.00 58 1013.9
20260905160031 32 294 1.6 8.0 0.00 0.00 0.00 62 1014.1
20260905154603 32 62 3.2 6.4 0.00 0.00 0.00 63 1014.2
20260905153029 31 355 1.6 6.4 0.00 0.00 0.00 65 1014.1
20260905151502 31 16 3.2 9.7 0.00 0.00 0.00 65 1014.1
20260905150004 31 200 0.0 3.2 0.00 0.00 0.00 69 1014.2
20260905144553 30 239 0.0 3.2 0.00 0.00 0.00 70 1014.2
20260905143030 29 360 3.2 6.4 0.00 0.00 0.00 72 1014.3
20260905141520 28 309 1.6 4.8 0.00 0.00 0.00 75 1014.3
20260905140101 27 355 0.0 4.8 0.00 0.00 0.00 79 1014.3
20260905134529 27 316 0.0 0.0 0.00 0.00 0.00 84 1014.3
20260905133111 26 215 0.0 0.0 0.00 0.00 0.00 88 1014.3
20260905131531 25 215 0.0 0.0 0.00 0.00 0.00 91 1014.4
20260905130016 24 215 0.0 0.0 0.00 0.00 0.00 92 1014.4
20260905124557 23 215 0.0 0.0 0.00 0.00 0.00 92 1014.4
20260905123029 22 215 0.0 0.0 0.00 0.00 0.00 92 1014.4
20260905121521 22 215 0.0 0.0 0.00 0.00 0.00 92 1014.6
20260905120034 22 215 0.0 0.0 0.00 0.00 0.00 92 1014.5
20260905114516 22 215 0.0 0.0 0.00 0.00 0.00 91 1014.3
20260905113007 22 215 0.0 0.0 0.00 0.00 0.00 92 1014.0
20260905111632 21 215 0.0 1.6 0.00 0.00 0.00 92 1013.8
20260905110021 22 215 0.0 0.0 0.00 0.00 0.00 91 1013.5
20260905104511 22 215 0.0 0.0 0.00 0.00 0.00 91 1013.3
20260905103022 22 215 0.0 1.6 0.00 0.00 0.00 91 1013.2
20260905101602 22 215 0.0 0.0 0.00 0.00 0.00 91 1013.2
20260905100019 22 215 0.0 0.0 0.00 0.00 0.00 91 1013.1
20260905094549 22 215 0.0 1.6 0.00 0.00 0.00 91 1013.2
20260905093029 22 215 0.0 0.0 0.00 0.00 0.00 91 1013.2
20260905091503 22 215 0.0 0.0 0.00 0.00 0.00 91 1013.1
20260905090038 22 215 0.0 0.0 0.00 0.00 0.00 90 1013.3
20260905084522 22 215 0.0 1.6 0.00 0.00 0.00 91 1013.3
20260905083009 22 215 0.0 0.0 0.00 0.00 0.00 91 1013.3
20260905081542 22 215 0.0 1.6 0.00 0.00 0.00 91 1013.4
20260905080028 23 215 0.0 0.0 0.00 0.00 0.00 91 1013.7
20260905074522 23 215 0.0 1.6 0.00 0.00 0.00 90 1013.7
20260905073011 23 215 0.0 1.6 0.00 0.00 0.00 90 1013.7
20260905071549 23 215 0.0 1.6 0.00 0.00 0.00 90 1013.8
20260905070045 23 215 0.0 3.2 0.00 0.00 0.00 91 1013.9
20260905064503 23 215 0.0 1.6 0.00 0.00 0.00 91 1014.3
20260905063101 23 215 0.0 1.6 0.00 0.00 0.00 91 1014.4
20260905061523 23 215 0.0 1.6 0.00 0.00 0.00 90 1014.7